CRL745 TFFR-LFRS

Flight info

Callsign CRL745
Flight time N/A
Altitude 35000
Route BOSET DCT BNJEE DCT 26N055W 32N050W 38N045W 43N040W 47N030W 48N020W 48N015W 48N013W DCT ETIKI UN480 REGHI/N0458F350 DCT PEVIS DCT ARZIP DCT EBOMO DCT KORER UN482 GODAN
Aircraft A339/H-SADE1E2E3GHIJ1J3J5M1P2RWXY/LB2D1

Departure

Time 2026-04-16 22:09
Airport Maryse Condé International Airport (TFFR)

Arrival

Time N/A
Airport Nantes Atlantique Airport (LFRS)
Time Latitude Longitude Altitude Speed Heading
2026-04-16 21:43 16.26898 -61.52615 27 ft 0 kts 350°
2026-04-16 21:57 16.26885 -61.52612 27 ft 4 kts 355°
2026-04-16 21:57 16.26858 -61.52611 24 ft 4 kts 359°
2026-04-16 21:58 16.26832 -61.52610 25 ft 4 kts 346°
2026-04-16 21:58 16.26810 -61.52604 26 ft 4 kts 311°
2026-04-16 21:58 16.26796 -61.52583 25 ft 4 kts 285°
2026-04-16 21:58 16.26791 -61.52564 24 ft 0 kts 279°
2026-04-16 22:02 16.26793 -61.52573 27 ft 1 kts 279°
2026-04-16 22:02 16.26799 -61.52606 27 ft 8 kts 281°
2026-04-16 22:02 16.26811 -61.52673 27 ft 10 kts 281°
2026-04-16 22:03 16.26825 -61.52748 27 ft 11 kts 281°
2026-04-16 22:03 16.26839 -61.52824 27 ft 11 kts 281°
2026-04-16 22:03 16.26844 -61.52901 27 ft 10 kts 255°
2026-04-16 22:03 16.26788 -61.52939 27 ft 10 kts 196°
2026-04-16 22:04 16.26721 -61.52952 27 ft 10 kts 191°
2026-04-16 22:04 16.26655 -61.52966 27 ft 10 kts 191°
2026-04-16 22:04 16.26583 -61.52980 28 ft 13 kts 190°
2026-04-16 22:04 16.26505 -61.53022 29 ft 12 kts 244°
2026-04-16 22:05 16.26518 -61.53119 27 ft 16 kts 281°
2026-04-16 22:05 16.26545 -61.53263 28 ft 24 kts 281°
2026-04-16 22:05 16.26580 -61.53454 27 ft 28 kts 281°
2026-04-16 22:05 16.26614 -61.53644 29 ft 26 kts 280°
2026-04-16 22:06 16.26650 -61.53833 30 ft 27 kts 281°
2026-04-16 22:06 16.26721 -61.54216 24 ft 27 kts 281°
2026-04-16 22:06 16.26757 -61.54409 20 ft 27 kts 281°
2026-04-16 22:07 16.26793 -61.54596 17 ft 21 kts 281°
2026-04-16 22:07 16.26821 -61.54698 19 ft 10 kts 303°
2026-04-16 22:07 16.26860 -61.54743 21 ft 7 kts 297°
2026-04-16 22:07 16.26844 -61.54773 22 ft 4 kts 221°
2026-04-16 22:08 16.26824 -61.54768 21 ft 3 kts 162°
2026-04-16 22:08 16.26820 -61.54748 22 ft 3 kts 102°
2026-04-16 22:08 16.26819 -61.54742 21 ft 0 kts 100°
2026-04-16 22:08 16.26782 -61.54539 18 ft 66 kts 101°
2026-04-16 22:09 16.26650 -61.53832 29 ft 130 kts 101°
2026-04-16 22:09 16.26450 -61.52736 75 ft 173 kts 100°
2026-04-16 22:09 16.26212 -61.51536 738 ft 168 kts 101°
2026-04-16 22:09 16.25952 -61.50342 1374 ft 170 kts 101°
2026-04-16 22:10 16.25718 -61.49150 1992 ft 169 kts 100°
2026-04-16 22:10 16.25511 -61.47890 2274 ft 185 kts 99°
2026-04-16 22:10 16.25272 -61.46504 2475 ft 206 kts 99°
2026-04-16 22:10 16.25010 -61.44983 2685 ft 225 kts 100°
2026-04-16 22:11 16.24709 -61.43317 2845 ft 243 kts 100°
2026-04-16 22:11 16.24554 -61.41550 3180 ft 248 kts 82°
2026-04-16 22:11 16.25170 -61.39880 3671 ft 252 kts 56°
2026-04-16 22:11 16.26501 -61.38675 4204 ft 258 kts 30°
2026-04-16 22:12 16.27653 -61.38262 4490 ft 266 kts 13°
2026-04-16 22:12 16.29516 -61.38017 4912 ft 270 kts 11°
2026-04-16 22:12 16.31324 -61.37591 5355 ft 269 kts 22°
2026-04-16 22:12 16.33047 -61.36827 5795 ft 270 kts 30°
2026-04-16 22:13 16.34672 -61.35824 6231 ft 273 kts 36°
2026-04-16 22:13 16.36232 -61.34700 6702 ft 273 kts 38°
2026-04-16 22:13 16.37779 -61.33520 7074 ft 278 kts 38°
2026-04-16 22:13 16.39336 -61.32319 7530 ft 278 kts 38°
2026-04-16 22:14 16.40904 -61.31116 7927 ft 283 kts 37°
2026-04-16 22:14 16.42503 -61.29899 8340 ft 286 kts 37°
2026-04-16 22:14 16.44119 -61.28677 8769 ft 289 kts 36°
2026-04-16 22:14 16.45754 -61.27444 9176 ft 292 kts 36°
2026-04-16 22:15 16.47409 -61.26195 9590 ft 295 kts 36°
2026-04-16 22:15 16.49081 -61.24934 10039 ft 298 kts 36°
2026-04-16 22:15 16.50790 -61.23644 10235 ft 310 kts 36°
2026-04-16 22:15 16.52582 -61.22293 10347 ft 324 kts 36°
2026-04-16 22:16 16.54450 -61.20884 10494 ft 338 kts 36°
2026-04-16 22:16 16.56386 -61.19423 10684 ft 347 kts 36°
2026-04-16 22:16 16.58327 -61.17957 11094 ft 349 kts 36°
2026-04-16 22:16 16.60306 -61.16461 11496 ft 352 kts 35°
2026-04-16 22:17 16.62291 -61.14962 11928 ft 354 kts 35°
2026-04-16 22:17 16.64293 -61.13448 12327 ft 356 kts 35°
2026-04-16 22:17 16.66306 -61.11927 12761 ft 358 kts 35°
2026-04-16 22:17 16.68329 -61.10396 13153 ft 361 kts 35°
2026-04-16 22:18 16.70365 -61.08857 13590 ft 363 kts 35°
2026-04-16 22:18 16.72422 -61.07300 13946 ft 366 kts 34°
2026-04-16 22:18 16.74486 -61.05738 14291 ft 368 kts 34°
2026-04-16 22:18 16.76573 -61.04158 14578 ft 372 kts 34°
2026-04-16 22:19 16.78674 -61.02568 14925 ft 375 kts 34°
2026-04-16 22:19 16.80797 -61.00960 15223 ft 379 kts 34°
2026-04-16 22:19 16.82929 -60.99345 15604 ft 380 kts 34°
2026-04-16 22:19 16.85080 -60.97714 15898 ft 383 kts 34°
2026-04-16 22:20 16.87239 -60.96077 16274 ft 385 kts 34°
2026-04-16 22:20 16.89412 -60.94429 16623 ft 387 kts 34°
2026-04-16 22:20 16.91593 -60.92776 16932 ft 390 kts 34°
2026-04-16 22:20 16.93795 -60.91106 17249 ft 392 kts 34°
2026-04-16 22:21 16.96011 -60.89424 17568 ft 395 kts 34°
2026-04-16 22:21 16.98238 -60.87734 17892 ft 397 kts 34°
2026-04-16 22:21 17.00480 -60.86031 18184 ft 400 kts 34°
2026-04-16 22:21 17.02710 -60.84338 18495 ft 401 kts 34°
2026-04-16 22:22 17.04996 -60.82601 18786 ft 403 kts 34°
2026-04-16 22:22 17.07273 -60.80871 19065 ft 405 kts 34°
2026-04-16 22:22 17.09532 -60.79153 19370 ft 407 kts 33°
2026-04-16 22:22 17.11820 -60.77412 19653 ft 409 kts 33°
2026-04-16 22:23 17.14131 -60.75655 19953 ft 411 kts 33°
2026-04-16 22:23 17.16440 -60.73897 20318 ft 411 kts 33°
2026-04-16 22:23 17.18758 -60.72133 20588 ft 413 kts 33°
2026-04-16 22:23 17.21091 -60.70357 20876 ft 416 kts 33°
2026-04-16 22:24 17.23388 -60.68502 21154 ft 420 kts 38°
2026-04-16 22:24 17.25609 -60.66504 21436 ft 422 kts 37°
2026-04-16 22:24 17.27847 -60.64506 21723 ft 424 kts 37°
2026-04-16 22:24 17.30102 -60.62499 22010 ft 426 kts 37°
2026-04-16 22:25 17.32367 -60.60486 22317 ft 429 kts 37°
2026-04-16 22:25 17.34644 -60.58460 22598 ft 431 kts 37°
2026-04-16 22:25 17.36936 -60.56421 22872 ft 433 kts 37°
2026-04-16 22:25 17.39237 -60.54372 23169 ft 435 kts 36°
2026-04-16 22:26 17.41550 -60.52313 23477 ft 437 kts 37°
2026-04-16 22:26 17.43846 -60.50269 23762 ft 439 kts 37°
2026-04-16 22:26 17.46179 -60.48188 23991 ft 442 kts 37°
2026-04-16 22:26 17.48527 -60.46093 24222 ft 444 kts 37°
2026-04-16 22:27 17.50885 -60.43988 24465 ft 446 kts 37°
2026-04-16 22:27 17.53254 -60.41873 24702 ft 449 kts 37°
2026-04-16 22:27 17.55639 -60.39744 24939 ft 451 kts 37°
2026-04-16 22:27 17.58034 -60.37605 25170 ft 453 kts 37°
2026-04-16 22:28 17.60441 -60.35454 25414 ft 456 kts 37°
2026-04-16 22:28 17.62867 -60.33287 25655 ft 458 kts 37°
2026-04-16 22:28 17.65295 -60.31116 25881 ft 460 kts 37°
2026-04-16 22:28 17.67738 -60.28932 26128 ft 462 kts 37°
2026-04-16 22:29 17.70196 -60.26733 26363 ft 465 kts 37°
2026-04-16 22:29 17.72628 -60.24556 26585 ft 467 kts 37°
2026-04-16 22:29 17.75103 -60.22340 26813 ft 469 kts 37°
2026-04-16 22:29 17.77593 -60.20109 27039 ft 471 kts 37°
2026-04-16 22:30 17.80092 -60.17869 27270 ft 473 kts 37°
2026-04-16 22:30 17.82603 -60.15618 27496 ft 476 kts 36°
2026-04-16 22:30 17.85122 -60.13359 27719 ft 478 kts 36°
2026-04-16 22:30 17.87657 -60.11085 27929 ft 480 kts 36°
2026-04-16 22:31 17.90202 -60.08801 28150 ft 482 kts 36°
2026-04-16 22:31 17.92757 -60.06506 28368 ft 484 kts 36°
2026-04-16 22:31 17.95326 -60.04199 28646 ft 485 kts 36°
2026-04-16 22:31 17.97897 -60.01890 28857 ft 487 kts 36°
2026-04-16 22:32 18.00580 -59.99725 29046 ft 485 kts 28°
2026-04-16 22:32 18.03477 -59.97931 29259 ft 483 kts 23°
2026-04-16 22:32 18.06427 -59.96222 29466 ft 485 kts 24°
2026-04-16 22:32 18.09382 -59.94489 29697 ft 487 kts 24°
2026-04-16 22:33 18.12348 -59.92743 29914 ft 490 kts 24°
2026-04-16 22:33 18.15326 -59.90988 30137 ft 492 kts 24°
2026-04-16 22:33 18.18321 -59.89223 30321 ft 494 kts 24°
2026-04-16 22:33 18.21328 -59.87453 30515 ft 496 kts 24°
2026-04-16 22:34 18.24299 -59.85702 30753 ft 497 kts 24°
2026-04-16 22:34 18.27326 -59.83919 30920 ft 500 kts 24°
2026-04-16 22:34 18.30370 -59.82126 31095 ft 502 kts 24°
2026-04-16 22:34 18.33433 -59.80320 31282 ft 505 kts 24°
2026-04-16 22:35 18.36499 -59.78511 31467 ft 507 kts 24°
2026-04-16 22:35 18.39582 -59.76692 31649 ft 509 kts 24°
2026-04-16 22:35 18.42684 -59.74861 31820 ft 512 kts 24°
2026-04-16 22:35 18.45799 -59.73021 32001 ft 514 kts 24°
2026-04-16 22:36 18.48918 -59.71177 32273 ft 514 kts 24°
2026-04-16 22:36 18.52041 -59.69329 32456 ft 515 kts 24°
2026-04-16 22:36 18.55178 -59.67475 32587 ft 518 kts 24°
2026-04-16 22:36 18.58324 -59.65613 32730 ft 520 kts 24°
2026-04-16 22:37 18.61481 -59.63744 32845 ft 521 kts 24°
2026-04-16 22:37 18.64646 -59.61869 32989 ft 523 kts 24°
2026-04-16 22:37 18.70866 -59.58175 33054 ft 504 kts 24°
2026-04-16 22:38 18.76965 -59.54556 33052 ft 503 kts 24°
2026-04-16 22:38 18.83065 -59.50943 33053 ft 505 kts 24°
2026-04-16 22:39 18.89181 -59.47308 33049 ft 504 kts 24°
2026-04-16 22:39 18.95299 -59.43670 33051 ft 505 kts 24°
2026-04-16 22:40 19.01413 -59.40031 33059 ft 503 kts 24°
2026-04-16 22:40 19.07506 -59.36400 33023 ft 502 kts 24°
2026-04-16 22:41 19.13578 -59.32780 33015 ft 500 kts 24°
2026-04-16 22:41 19.19638 -59.29164 33071 ft 501 kts 24°
2026-04-16 22:42 19.25744 -59.25523 33068 ft 510 kts 24°
2026-04-16 22:42 19.31865 -59.21858 33070 ft 501 kts 24°
2026-04-16 22:43 19.37947 -59.18220 33072 ft 504 kts 24°
2026-04-16 22:43 19.44057 -59.14563 33071 ft 503 kts 24°
2026-04-16 22:44 19.50145 -59.10914 33070 ft 503 kts 24°
2026-04-16 22:44 19.56245 -59.07257 33108 ft 503 kts 24°
2026-04-16 22:45 19.62327 -59.03607 33108 ft 502 kts 24°
2026-04-16 22:45 19.68411 -58.99949 33085 ft 502 kts 24°
2026-04-16 22:46 19.74455 -58.96314 33080 ft 501 kts 24°
2026-04-16 22:46 19.80516 -58.92666 33108 ft 500 kts 24°
2026-04-16 22:47 19.86572 -58.89019 33117 ft 499 kts 24°
2026-04-16 22:47 19.92606 -58.85379 33104 ft 498 kts 24°
2026-04-16 22:48 19.98634 -58.81741 33087 ft 497 kts 24°
2026-04-16 22:48 20.04637 -58.78114 33093 ft 495 kts 24°
2026-04-16 22:49 20.10618 -58.74499 33117 ft 493 kts 24°
2026-04-16 22:49 20.16582 -58.70890 33099 ft 492 kts 24°
2026-04-16 22:50 20.22484 -58.67315 33084 ft 491 kts 24°
2026-04-16 22:50 20.28414 -58.63719 33079 ft 490 kts 24°
2026-04-16 22:51 20.34322 -58.60137 33114 ft 488 kts 25°
2026-04-16 22:51 20.40211 -58.56561 33107 ft 486 kts 25°
2026-04-16 22:52 20.46079 -58.52993 33099 ft 485 kts 25°
2026-04-16 22:52 20.51936 -58.49430 33086 ft 484 kts 25°
2026-04-16 22:53 20.57767 -58.45879 33086 ft 482 kts 25°
2026-04-16 22:53 20.63598 -58.42326 33094 ft 481 kts 25°
2026-04-16 22:54 20.69409 -58.38781 33082 ft 480 kts 25°
2026-04-16 22:54 20.75183 -58.35255 33076 ft 480 kts 25°
2026-04-16 22:55 20.80977 -58.31714 33078 ft 480 kts 25°
2026-04-16 22:55 20.86766 -58.28177 33116 ft 479 kts 26°
2026-04-16 22:56 20.92551 -58.24634 33102 ft 478 kts 26°
2026-04-16 22:56 20.98331 -58.21092 33103 ft 478 kts 26°
2026-04-16 22:57 21.04099 -58.17552 33105 ft 478 kts 26°
2026-04-16 22:57 21.08893 -58.14613 33136 ft 477 kts 26°
2026-04-16 22:58 21.15588 -58.10500 33126 ft 476 kts 27°
2026-04-16 22:58 21.21330 -58.06967 33129 ft 476 kts 27°
2026-04-16 22:59 21.26104 -58.04028 33119 ft 475 kts 27°
2026-04-16 22:59 21.31848 -58.00490 33118 ft 475 kts 27°
2026-04-16 23:00 21.37571 -57.96962 33115 ft 474 kts 27°
2026-04-16 23:00 21.43289 -57.93433 33113 ft 474 kts 27°
2026-04-16 23:01 21.49004 -57.89902 33116 ft 473 kts 26°
2026-04-16 23:01 21.54677 -57.86395 33113 ft 473 kts 26°
2026-04-16 23:02 21.60376 -57.82871 33124 ft 473 kts 27°
2026-04-16 23:02 21.66080 -57.79337 33125 ft 473 kts 27°
2026-04-16 23:03 21.71779 -57.75804 33125 ft 472 kts 27°
2026-04-16 23:03 21.77479 -57.72267 33124 ft 472 kts 27°
2026-04-16 23:04 21.83180 -57.68728 33164 ft 471 kts 27°
2026-04-16 23:04 21.88820 -57.65220 33181 ft 459 kts 27°
2026-04-16 23:05 21.94258 -57.61832 33133 ft 454 kts 27°
2026-04-16 23:05 21.97007 -57.60122 33268 ft 457 kts 27°
2026-04-16 23:05 21.99766 -57.58405 33397 ft 457 kts 27°
2026-04-16 23:06 22.02518 -57.56689 33528 ft 457 kts 27°
2026-04-16 23:06 22.05268 -57.54975 33659 ft 457 kts 27°
2026-04-16 23:06 22.08007 -57.53267 33788 ft 452 kts 27°
2026-04-16 23:06 22.10715 -57.51576 33917 ft 450 kts 27°
2026-04-16 23:07 22.13446 -57.49871 34053 ft 451 kts 27°
2026-04-16 23:07 22.16161 -57.48175 34176 ft 452 kts 27°
2026-04-16 23:07 22.18882 -57.46475 34288 ft 452 kts 27°
2026-04-16 23:07 22.21609 -57.44770 34405 ft 454 kts 27°
2026-04-16 23:08 22.24349 -57.43057 34525 ft 455 kts 27°
2026-04-16 23:08 22.27058 -57.41362 34636 ft 456 kts 27°
2026-04-16 23:08 22.29806 -57.39641 34761 ft 457 kts 27°
2026-04-16 23:08 22.32553 -57.37922 34884 ft 455 kts 27°
2026-04-16 23:09 22.35286 -57.36207 35005 ft 455 kts 27°
2026-04-16 23:09 22.38067 -57.34463 35109 ft 457 kts 27°
2026-04-16 23:09 22.43552 -57.31022 35151 ft 459 kts 27°
2026-04-16 23:10 22.49067 -57.27559 35146 ft 458 kts 27°
2026-04-16 23:10 22.54577 -57.24096 35147 ft 458 kts 27°
2026-04-16 23:11 22.60055 -57.20649 35147 ft 455 kts 27°
2026-04-16 23:11 22.65538 -57.17197 35145 ft 457 kts 27°
2026-04-16 23:12 22.71047 -57.13724 35166 ft 459 kts 27°
2026-04-16 23:12 22.76573 -57.10237 35187 ft 460 kts 27°
2026-04-16 23:13 22.82120 -57.06735 35200 ft 462 kts 27°
2026-04-16 23:13 22.87640 -57.03245 35204 ft 463 kts 27°
2026-04-16 23:14 22.93171 -56.99744 35146 ft 454 kts 27°
2026-04-16 23:14 22.98636 -56.96285 35159 ft 456 kts 27°
2026-04-16 23:15 23.06852 -56.91076 35166 ft 455 kts 27°
2026-04-16 23:16 23.12318 -56.87607 35172 ft 456 kts 27°
2026-04-16 23:16 23.17791 -56.84129 35155 ft 455 kts 27°
2026-04-16 23:17 23.23258 -56.80653 35159 ft 455 kts 27°
2026-04-16 23:17 23.28720 -56.77176 35174 ft 455 kts 27°
2026-04-16 23:18 23.34183 -56.73694 35173 ft 455 kts 27°
2026-04-16 23:18 23.39610 -56.70232 35175 ft 454 kts 27°
2026-04-16 23:19 23.45077 -56.66742 35170 ft 454 kts 27°
2026-04-16 23:19 23.50526 -56.63261 35174 ft 454 kts 27°
2026-04-16 23:20 23.55975 -56.59775 35173 ft 454 kts 27°
2026-04-16 23:20 23.61390 -56.56308 35179 ft 453 kts 28°
2026-04-16 23:21 23.66831 -56.52820 35178 ft 453 kts 28°
2026-04-16 23:21 23.72259 -56.49338 35175 ft 453 kts 28°
2026-04-16 23:22 23.77687 -56.45852 35175 ft 452 kts 28°
2026-04-16 23:22 23.83106 -56.42369 35176 ft 452 kts 28°
2026-04-16 23:23 23.88531 -56.38879 35177 ft 452 kts 28°
2026-04-16 23:23 23.93949 -56.35389 35181 ft 452 kts 28°
2026-04-16 23:24 23.99372 -56.31894 35160 ft 452 kts 28°
2026-04-16 23:24 24.04794 -56.28394 35173 ft 452 kts 28°
2026-04-16 23:25 24.10187 -56.24910 35173 ft 453 kts 28°
2026-04-16 23:25 24.15611 -56.21403 35177 ft 453 kts 28°
2026-04-16 23:26 24.21050 -56.17882 35171 ft 454 kts 28°
2026-04-16 23:26 24.26483 -56.14362 35179 ft 454 kts 28°
2026-04-16 23:27 24.31935 -56.10826 35184 ft 455 kts 28°